Wind_Speed
12 13 13 8 7 8 9 9 8 9 14 12 9 20 5 17 16 21 20 21 21 19 19 16 17 17 16 14 15 13 13 15 14 12 11 11 11 10 8 6 5 4 3
9 11 12 10 8 8 9 9 9 8 8 9 14 18 20 17 16 16 19 23 24 23 20 19 21 20 18 16 14 15 15 16 16 14 13 12 12 11 8 8 6 6 5
13 14 14 14 9 7 8 6 10 6 6 7 10 10 11 16 18 14 18 18 25 23 23 21 25 25 23 20 17 16 17 16 16 16 15 14 13 12 11 9 9 8 7
14 14 15 13 9 8 5 11 7 5 5 7 8 8 11 14 16 14 18 14 17 18 21 22 26 27 25 23 22 20 21 20 19 18 17 16 15 14 13 11 11 11 9
10 13 15 12 11 8 6 5 6 7 7 9 6 4 5 8 11 18 21 14 9 20 22 22 24 27 24 23 25 25 24 23 21 20 20 18 18 16 15 13 13 12 12
9 14 14 14 12 9 8 6 6 7 8 10 9 3 3 8 12 12 16 19 16 14 18 24 23 26 26 25 26 26 28 27 25 23 23 21 20 19 18 17 17 16 15
13 14 16 15 14 12 8 8 7 7 5 6 6 2 2 4 4 6 7 17 19 19 20 20 25 27 28 27 28 30 30 30 28 26 25 23 23 22 21 20 19 18 17
12 16 16 14 13 13 10 9 8 5 3 6 3 3 3 3 4 8 10 5 19 22 22 24 23 24 25 28 29 30 31 32 29 28 28 27 26 26 25 24 22 21 19
14 19 17 14 13 13 12 9 8 7 5 4 6 3 2 1 3 5 6 5 10 13 23 27 25 23 22 23 25 29 31 32 31 31 31 30 30 29 28 26 24 23 22
18 19 17 17 14 15 12 12 8 9 8 3 10 8 8 5 1 4 6 5 5 1 15 25 25 23 21 19 20 22 25 32 33 34 35 34 33 32 30 29 27 26 25
17 16 15 15 17 19 17 14 12 9 7 4 6 5 4 2 4 3 3 5 5 8 6 8 24 25 26 25 23 22 23 29 31 34 39 39 36 34 34 33 31 30 28
14 16 16 16 17 17 15 13 11 10 9 8 7 9 8 6 5 5 3 3 3 3 7 9 9 5 21 28 29 24 24 26 31 33 34 36 41 39 37 36 36 33 31
17 17 15 16 18 17 17 16 15 13 10 10 9 8 6 7 7 11 6 2 4 5 3 8 11 16 14 11 28 32 27 27 30 29 32 36 36 40 42 40 36 34 33
15 14 15 15 14 15 13 14 15 14 14 12 11 9 7 7 12 15 18 8 3 4 4 10 8 10 16 18 13 18 24 33 29 31 30 30 34 36 37 39 40 38 34
14 11 11 12 14 13 14 13 16 16 14 13 10 12 15 13 15 16 25 20 10 3 4 9 10 3 7 11 24 24 19 24 35 32 31 29 28 29 31 33 35 36 35
7 12 12 12 12 14 16 15 17 17 18 17 17 16 16 18 17 12 10 20 26 10 3 14 16 13 3 9 17 23 25 29 28 33 33 31 29 29 28 29 31 32 31
2 5 9 11 12 14 15 17 18 18 20 16 21 19 19 16 14 17 15 12 12 12 7 11 22 15 13 9 4 17 20 27 36 34 36 30 32 31 30 29 29 30 31
5 4 7 10 11 12 13 15 18 20 19 20 20 19 21 21 20 17 19 21 18 17 16 14 13 16 18 15 17 25 25 24 27 27 28 27 28 32 34 32 31 31 31
6 7 6 7 9 11 14 16 18 18 20 22 22 19 22 23 23 22 22 23 22 19 18 17 18 14 18 18 22 31 30 27 29 28 25 23 25 26 29 34 33 32 34
5 7 7 6 7 9 10 13 17 19 20 21 22 22 22 23 23 23 24 25 25 25 27 26 24 25 22 20 22 23 22 23 25 23 22 22 21 22 28 32 34 34 34
7 8 9 9 9 9 7 9 10 12 14 16 18 21 23 25 26 24 24 26 24 26 28 28 24 22 19 22 21 25 22 21 24 26 25 25 23 22 20 17 24 33 34
9 11 12 11 12 10 11 12 8 7 8 11 13 15 16 17 20 23 27 30 31 30 29 26 22 20 24 22 26 20 23 11 4 16 18 22 18 22 26 30 26 26 29
9 10 10 10 11 13 14 16 16 14 12 14 16 19 20 19 18 20 20 21 24 25 27 31 26 26 26 29 29 29 27 19 15 18 17 18 20 27 27 28 27 27 33
11 12 13 14 12 9 10 11 13 14 14 15 17 18 20 22 22 23 25 27 27 28 26 28 30 32 36 38 32 31 29 28 26 25 22 17 25 30 32 30 26 27 29
12 14 13 15 16 17 18 18 18 19 19 18 18 19 20 22 23 23 28 31 33 32 28 25 27 28 28 28 29 28 27 22 20 23 27 26 26 28 30 33 36 33 29
14 13 11 10 11 14 13 14 17 13 16 17 21 22 19 20 20 8 13 18 19 23 21 23 26 26 24 25 24 26 29 24 21 13 25 24 25 19 10 24 32 33 33
Wind_Direction
235 227 246 248 267 279 287 282 289 273 232 217 249 227 256 225 223 224 214 209 213 202 209 210 206 198 188 183 185 186 179 178 173 178 178 178 174 175 182 192 192 211 226
225 236 236 239 260 278 290 293 293 278 236 223 227 219 224 222 224 220 222 213 212 220 220 208 203 200 196 192 192 194 194 191 186 188 192 188 189 192 201 210 219 229 239
238 249 249 246 241 272 314 294 312 285 244 282 221 217 239 232 231 203 203 211 217 215 223 209 201 204 203 205 202 201 198 191 195 201 200 202 202 207 206 223 227 231 246
243 242 248 257 223 287 289 305 307 286 277 278 246 216 231 220 230 194 197 197 200 208 213 209 206 212 211 209 208 207 205 207 210 210 205 213 211 217 218 224 231 238 246
239 239 239 244 241 253 267 304 315 321 312 319 277 283 213 218 207 199 193 178 173 206 211 209 206 215 209 208 211 214 212 212 216 214 212 217 219 221 225 231 233 238 247
235 239 237 241 248 254 301 289 300 305 334 346 352 208 177 180 184 200 201 201 206 193 195 207 208 215 220 214 215 219 220 216 219 220 217 221 222 226 234 241 240 245 253
227 234 234 241 249 250 271 294 303 313 2 358 5 342 289 197 207 255 224 221 210 205 204 202 204 210 218 222 220 222 224 220 221 225 226 227 227 230 237 244 246 249 257
231 221 236 234 247 251 258 276 279 300 360 345 57 343 11 43 120 133 136 168 221 215 210 215 212 216 221 220 222 223 224 220 224 228 230 233 236 237 241 246 247 252 262
222 227 229 226 243 250 253 259 272 274 297 346 360 280 43 291 318 347 166 129 145 211 223 216 215 215 222 222 218 217 223 222 226 232 236 239 242 242 243 245 246 251 261
226 233 238 233 239 242 250 242 271 267 268 272 109 85 125 172 121 337 345 292 294 303 216 221 225 219 218 220 218 221 228 231 233 237 240 243 245 244 244 246 247 253 262
236 241 243 234 238 242 246 243 243 264 255 285 180 168 242 166 157 140 256 307 345 284 290 245 226 227 227 224 226 229 234 239 240 244 244 245 244 244 245 247 248 255 262
242 250 246 244 240 242 248 245 247 249 249 241 274 214 195 218 185 158 229 268 294 256 287 246 230 189 229 233 233 241 241 243 246 245 244 245 244 244 246 248 251 255 262
243 246 240 232 236 234 240 244 242 239 238 237 241 243 273 264 218 216 240 108 245 264 289 283 236 250 256 246 243 242 242 248 246 247 248 247 246 247 248 249 251 256 260
247 249 243 239 240 242 240 236 233 242 240 250 248 249 240 234 208 220 221 183 240 231 245 259 273 262 236 248 253 237 255 248 249 249 247 248 248 247 248 248 251 255 256
254 236 237 243 236 239 239 237 237 241 240 243 250 252 251 240 249 242 227 225 206 212 252 271 233 240 251 245 243 248 263 271 256 252 250 247 245 245 246 248 249 251 253
291 239 234 236 239 241 240 241 236 243 249 251 253 254 254 263 256 244 252 255 249 256 265 238 244 246 219 249 245 243 263 272 265 249 255 252 249 246 243 244 246 248 250
302 231 242 241 244 248 244 245 248 247 248 259 259 255 261 271 272 272 280 269 254 264 258 272 241 240 228 243 258 212 248 250 254 251 248 249 247 248 248 247 249 250 249
288 282 261 250 251 256 258 250 250 252 254 256 255 255 262 267 270 268 274 283 279 281 278 264 260 219 217 254 245 229 237 250 247 254 251 255 256 251 251 251 251 251 253
35 16 328 293 275 273 268 265 263 262 259 262 265 266 263 262 264 264 266 273 276 277 282 293 294 274 245 256 248 241 246 253 245 248 258 266 264 261 255 253 253 256 257
360 350 360 356 327 312 303 285 268 261 262 265 268 270 269 268 268 265 266 272 269 268 275 281 278 281 284 272 256 252 256 257 249 251 257 261 269 261 254 256 252 251 254
329 329 329 326 328 332 350 357 290 277 277 276 276 276 275 274 272 271 268 267 266 264 264 270 271 270 266 268 261 260 259 265 260 254 259 261 264 257 254 261 257 253 252
321 313 310 316 318 322 326 343 344 317 304 296 296 295 296 296 287 279 271 269 269 268 269 261 259 262 263 260 267 276 257 244 253 242 248 249 245 257 255 268 272 258 251
338 340 329 322 317 315 313 313 311 309 299 295 293 292 291 289 286 293 293 287 281 274 268 265 262 258 263 266 271 270 269 271 261 270 265 255 258 259 278 269 273 264 256
342 338 343 345 345 352 339 338 330 318 310 302 296 293 291 291 291 292 293 290 290 286 279 273 270 271 270 268 267 269 268 270 275 272 263 257 263 265 274 277 277 269 260
340 333 326 324 327 327 327 328 329 321 308 303 300 298 296 292 292 290 284 286 286 282 283 280 278 276 278 279 277 268 268 261 260 260 258 261 262 262 269 277 277 269 266
333 326 323 324 323 328 339 339 345 357 339 323 306 298 299 305 290 303 338 328 320 296 290 287 285 280 278 282 281 273 272 253 255 268 260 249 255 248 267 269 269 269 263
Height
836 838 838 840 842 840 841 842 844 845 845 848 844 844 843 847 850 851 852 855 859 861 864 866 870 872 874 875 876 879 880 882 883 886 887 888 890 893 894 895 896 897 897
836 836 837 838 840 839 840 842 844 844 844 845 843 842 843 844 845 845 848 851 855 858 860 862 866 870 873 874 876 878 880 881 882 884 886 888 889 891 893 894 895 896 896
835 836 836 837 839 840 841 841 841 840 840 841 842 841 842 843 843 842 844 847 852 854 856 858 862 866 869 872 874 876 878 880 881 883 884 886 887 889 891 892 893 894 894
833 834 835 836 839 839 841 838 839 837 838 839 838 838 839 839 840 839 843 847 850 852 853 855 859 863 865 868 871 874 876 878 880 881 882 884 886 887 888 890 891 892 892
831 832 832 835 839 839 840 840 838 836 836 836 837 834 837 838 839 840 844 845 844 846 849 853 857 860 863 866 869 871 873 875 877 879 880 882 883 885 886 887 888 889 890
827 829 831 833 837 838 840 840 839 837 838 835 835 833 835 836 837 837 841 844 843 844 846 849 854 857 860 863 866 869 870 872 874 876 877 878 880 882 884 885 886 887 887
820 825 829 833 834 835 839 839 837 836 835 832 833 833 834 836 838 839 841 842 842 843 844 846 849 852 856 859 863 865 868 870 872 874 876 876 877 878 880 882 883 885 885
821 823 827 831 832 834 836 835 835 835 832 830 832 834 837 837 838 839 838 838 841 842 843 843 845 847 850 853 856 861 864 866 869 870 872 874 874 874 875 877 879 881 882
820 821 825 829 830 832 835 835 834 832 830 831 832 837 841 842 837 834 834 835 837 840 842 842 841 844 847 848 851 855 859 862 864 866 867 869 870 870 872 873 874 875 877
819 820 823 827 828 830 832 833 832 833 832 834 836 835 834 836 838 838 831 832 835 837 839 840 842 843 845 847 849 851 854 857 859 860 862 863 865 866 867 869 870 871 872
816 817 819 821 824 827 829 831 831 831 831 832 831 831 835 834 834 835 836 832 833 833 837 839 841 841 842 843 845 846 849 852 854 854 855 857 859 860 862 863 864 865 866
813 813 814 817 821 824 825 827 829 831 832 832 831 832 832 829 830 833 833 832 832 833 832 835 836 837 840 843 841 841 843 845 848 849 850 849 851 853 855 857 859 859 860
810 808 809 811 815 819 821 823 826 827 829 830 830 830 829 828 827 827 829 831 832 831 829 830 829 831 833 835 838 839 836 839 841 842 844 844 845 846 848 851 853 854 854
807 807 808 809 812 815 817 820 823 825 827 828 829 828 828 827 827 828 828 829 832 828 828 826 825 825 827 829 833 832 833 833 834 837 837 838 839 840 841 843 846 848 849
805 806 808 809 810 812 814 816 818 821 823 824 825 825 825 826 826 826 826 826 825 826 824 819 821 822 820 821 823 824 826 829 830 831 834 833 833 833 833 835 837 839 840
803 804 807 809 810 811 812 814 815 816 818 820 821 821 822 823 824 825 824 824 824 824 823 815 815 819 820 820 815 814 816 823 825 827 829 828 828 827 826 826 828 830 832
803 804 806 808 808 810 810 811 812 813 814 815 817 817 817 819 819 818 818 820 822 821 819 814 814 816 816 816 809 809 812 816 819 820 821 820 820 821 821 820 821 823 824
803 804 805 806 806 808 808 808 809 810 810 811 813 815 815 816 816 816 814 813 815 815 814 812 810 811 812 812 812 812 811 812 813 813 813 812 813 814 815 814 813 815 818
803 804 804 803 804 804 804 804 805 805 806 807 807 809 810 811 811 812 811 809 809 809 809 808 807 806 807 810 810 809 810 808 809 808 807 807 807 807 806 806 807 808 811
804 804 803 803 803 802 802 801 800 800 801 802 802 803 804 804 804 805 805 804 804 805 804 802 803 803 804 802 805 805 803 802 803 803 803 800 801 800 798 798 799 799 801
804 803 802 802 801 802 800 799 799 798 797 797 797 797 797 798 798 799 799 799 800 800 799 798 797 797 798 800 800 798 798 796 795 796 796 794 793 792 790 789 789 790 792
804 803 802 801 800 799 799 799 798 798 796 796 795 794 793 793 792 792 792 792 793 793 793 793 791 789 788 791 791 790 791 792 791 790 789 787 786 785 783 782 781 781 783
803 802 801 800 798 797 797 796 795 794 794 793 793 792 790 790 789 787 786 785 785 785 785 785 784 783 782 782 785 785 785 785 785 785 785 781 781 779 778 776 775 776 777
802 800 798 797 796 795 793 792 791 790 789 789 788 787 786 785 784 783 780 779 778 778 778 777 776 776 776 776 777 778 779 779 778 778 779 777 776 772 772 771 769 770 771
800 799 797 796 795 794 792 791 789 787 784 783 783 783 782 781 780 778 775 773 771 770 771 771 769 769 769 769 771 772 772 773 771 770 771 772 770 767 765 763 761 763 763
798 796 795 795 794 793 791 789 787 784 782 780 778 777 777 776 775 773 771 769 766 764 765 764 763 763 764 763 764 765 765 765 766 765 763 765 762 763 760 756 755 755 756